Lexington Weather

Lexington, Massachusetts, USA

44°F
5/12/2021 4:44am 
  • Lexington Conditions: Clear
  • Temperature: 44.4°F / 6.9°CColder 0.4°F than last hour.
  • Dew Point: 33.4°FIncreased 0.9°Fsince last hour.
  • Relative Humidity: 65%Increased 3.0% since last hour.
  • Wind: Wind from NNW NNW 1 mph, 10-min avg: 1 mph, gust: 7 mph
  • Barometer: 29.92 in Steady
  • Visibility: 10 miles
  • Rain Today: 0.00 in
  •   

Regional Weather Roundup
for Boston / Norton, MA

        
000
ASUS41 KBOX 061604
RWRBOX

REGIONAL WEATHER ROUNDUP
NATIONAL WEATHER SERVICE BOSTON/NORTON MA
1200 PM EDT THU MAY 06 2021

NOTE:  "FAIR" INDICATES FEW OR NO CLOUDS BELOW 12,000 FEET WITH NO 
SIGNIFICANT WEATHER AND/OR OBSTRUCTIONS TO VISIBILITY.

MAZALL-061700-
EASTERN MASSACHUSETTS
  
CITY           SKY/WX    TMP DP  RH WIND       PRES   REMARKS
BOSTON         MOSUNNY   61  36  39 N15G26    29.84S                  
BEVERLY        SUNNY     59  36  42 NW16G32   29.83R                  
LAWRENCE       PTSUNNY   57  36  45 NW15G22   29.85S                  
BEDFORD        MOSUNNY   59  38  45 W16G26    29.84S                  
BLUE HILL        N/A     58  38  47 W16G26    29.82S                  
NORWOOD        MOSUNNY   61  37  41 NW14G21   29.84S                  
MARSHFIELD     MOSUNNY   61  39  44 NW15G28   29.82S                  
PLYMOUTH       MOSUNNY   61  38  42 NW14G22   29.82S                  
TAUNTON        PTSUNNY   61  38  42 NW14G22   29.84R                  
NEW BEDFORD    MOSUNNY   60  37  42 VRB7G16   29.83S                  
$$

MAZALL-061700-
CAPE COD AND THE ISLANDS
  
CITY           SKY/WX    TMP DP  RH WIND       PRES   REMARKS
FALMOUTH       MOSUNNY   61  39  44 NW16      29.82F                  
HYANNIS        SUNNY     61  41  47 NW15G23   29.81R                  
CHATHAM        SUNNY     58  40  51 NW13G25   29.84R                  
PROVINCETOWN   SUNNY     56  45  66 NW10      29.83S                  
NANTUCKET      SUNNY     61  43  51 W15G23    29.83S                  
MARTHAS VNYRD  SUNNY     61  40  45 NW14G22   29.84R                  
$$
 
MAZALL-061700-
CENTRAL AND WESTERN MASSACHUSETTS
  
CITY           SKY/WX    TMP DP  RH WIND       PRES   REMARKS
WORCESTER      MOSUNNY   56  34  43 NW16G25   29.86S                  
FITCHBURG      SUNNY     58  36  43 W18G25    29.86S                  
ORANGE         MOSUNNY   56  37  49 N13G23    29.89S                  
SPRINGFIELD    MOSUNNY   58  33  39 NW13G24   29.88F                  
WESTFIELD      MOSUNNY   59  36  42 N15G23    29.89F                  
NORTH ADAMS    MOSUNNY   55  35  47 VRB7G28   29.92S                  
PITTSFIELD     PTSUNNY   53  36  52 NW12G21   29.91S                  
$$
 
RIZALL-061700-
RHODE ISLAND
  
CITY           SKY/WX    TMP DP  RH WIND       PRES   REMARKS
PROVIDENCE     PTSUNNY   61  36  39 NW14G22   29.86R                  
NEWPORT        MOSUNNY   58  38  47 NW14G29   29.86R                  
BLOCK ISLAND   MOSUNNY   58  41  53 NW9G18    29.88S                  
SMITHFIELD       N/A     58  36  43 N18       29.86S                  
WESTERLY       MOSUNNY   58  37  45 N12G20    29.87S                  
$$
 
CTZALL-061700-
CONNECTICUT
  
CITY           SKY/WX    TMP DP  RH WIND       PRES   REMARKS
BRADLEY INTL   MOSUNNY   60  34  37 N15G26    29.89F                  
HARTFORD       MOSUNNY   60  35  39 NW15G24   29.90F                  
BRIDGEPORT     SUNNY     61  34  36 N14G22    29.92S                  
DANBURY        SUNNY     60  34  37 N14G28    29.94S                  
GROTON         PTSUNNY   59  38  45 NW14G23   29.87F                  
NEW HAVEN      MOSUNNY   62  37  39 NW15G26   29.90S                  
CHESTER        FAIR      59  32  36 N14       29.90R                  
MERIDEN        SUNNY     60  34  37 N18G26    29.90S                  
WILLIMANTIC    PTSUNNY   58  34  40 N15G23    29.88F                  
OXFORD         SUNNY     55  35  47 N22G29    29.91F                  
$$

MEZ002-015-021-024-NHZ003-005-008-011-012-014-VTZ005-008-061700-
NORTHERN NEW ENGLAND
  
CITY           SKY/WX    TMP DP  RH WIND       PRES   REMARKS
PORTLAND ME    MOSUNNY   59  41  51 N16G28    29.77R                  
BANGOR ME      CLOUDY    53  43  68 NW12G21   29.70R                  
CONCORD NH     MOSUNNY   58  31  35 NW21G28   29.85S                  
MANCHESTER NH  PTSUNNY   58  30  34 NW18G29   29.83F                  
NASHUA NH      MOSUNNY   57  33  40 NW14G25   29.85S                  
PORTSMOUTH NH  MOSUNNY   59  31  34 NW23G30   29.81S                  
JAFFREY NH     MOSUNNY   54  31  41 NW17G23   29.87R                  
KEENE NH       MOSUNNY   54  34  46 N15       29.88F                  
BURLINGTON VT  MOSUNNY   54  29  38 NW13G22   29.93S                  
MT. WASHINGTON FOG       25  25 100 NW63G69     N/A  VSB 1/16WCI   2  
$$

NYZ052-076-061700-
EASTERN NEW YORK
  
CITY           SKY/WX    TMP DP  RH WIND       PRES   REMARKS
ALBANY         MOSUNNY   52  37  56 W14G24    29.96S                  
NEW YORK CITY  MOSUNNY   59  33  37 NW13      29.96R                  
$$
 
ANZALL-061700-
MARINE OBSERVATIONS
  
STATION/POSITION TIME  TEMP    WIND        PRES    VSBY  WAVE
                       AIR SEA DIR/SP/G                  HT/PER
                 (UTC) (F)     (DEG/KT/KT) (MB)    (MI)  (FT/S)
BOSTON BUOY      1540   51 47  310/ 16/ 17 1009.5S
BUZZARDS BAY     1500          320/ 18/ 21 1011.7R
NANTUCKET SOUND  1540      52                N/A
MASS BAY-STELLWA 1504   52     320/ 17/ 21 1008.3R  1 7/8  3/ 8
ISLE OF SHOALS   1500   53     310/ 26/ 28 1008.3R
S OF BLOCK IS    1526      49                N/A           4/ 8
$$

......................KEY.........................
  SKY/WX - SKY CONDITION/PRESENT WEATHER
  TMP    - TEMPERATURE IN FAHRENHEIT
  DWPT   - DEWPOINT IN FAHRENHEIT
  RH     - RELATIVE HUMIDITY IN PERCENT
  WIND   - DIRECTION AND SPEED IN MPH
  PRES   - MEAN SEA LEVEL PRESSURE IN INCHES OF HG
  WCI    - WIND CHILL INDEX
  VSB    - VISIBILITY IN MILES
  HX     - HEAT INDEX
  TC     - TEMPERATURE IN CELSIUS
  VRB    - VARIABLE WIND DIRECTION
  N/A    - NOT AVAILABLE
  
      

Other recent Regional Weather Roundups

Wed May 12, 4:04am

Wed May 12, 3:04am

Wed May 12, 2:04am

Wed May 12, 1:04am

Wed May 12, 12:05am

Tue May 11, 11:05pm

Tue May 11, 10:04pm

Tue May 11, 9:05pm

Tue May 11, 8:05pm

Tue May 11, 7:04pm

Tue May 11, 6:04pm

Tue May 11, 5:04pm

Tue May 11, 4:05pm

Tue May 11, 3:04pm

Tue May 11, 2:05pm

Tue May 11, 1:04pm

Tue May 11, 12:05pm

Tue May 11, 11:05am

Tue May 11, 10:04am

Tue May 11, 9:04am

Tue May 11, 8:04am

Tue May 11, 7:05am

Tue May 11, 6:04am

Tue May 11, 5:04am

Tue May 11, 4:04am

Tue May 11, 3:04am

Tue May 11, 2:04am

Tue May 11, 1:04am

Tue May 11, 12:04am

Mon May 10, 11:04pm

Mon May 10, 10:04pm

Mon May 10, 9:05pm

Mon May 10, 8:04pm

Mon May 10, 7:05pm

Mon May 10, 6:04pm

Mon May 10, 5:04pm

Mon May 10, 4:04pm

Mon May 10, 3:04pm

Mon May 10, 2:04pm

Mon May 10, 1:04pm

Mon May 10, 12:04pm

Mon May 10, 11:05am

Mon May 10, 10:04am

Mon May 10, 9:04am

Mon May 10, 8:04am

Mon May 10, 7:04am

Mon May 10, 6:04am

Mon May 10, 5:05am

Mon May 10, 4:04am

Mon May 10, 3:04am

Mon May 10, 2:04am

Mon May 10, 1:04am

Mon May 10, 12:04am

Sun May 9, 11:04pm

Sun May 9, 10:04pm

Sun May 9, 9:04pm

Sun May 9, 8:04pm

Sun May 9, 7:05pm

Sun May 9, 6:04pm

Sun May 9, 5:04pm

Sun May 9, 4:04pm

Sun May 9, 3:04pm

Sun May 9, 2:04pm

Sun May 9, 1:05pm

Sun May 9, 12:04pm

Sun May 9, 11:05am

Sun May 9, 10:04am

Sun May 9, 9:04am

Sun May 9, 8:04am

Sun May 9, 7:04am

Sun May 9, 6:04am

Sun May 9, 5:04am

Sun May 9, 4:04am

Sun May 9, 3:04am

Sun May 9, 2:04am

Sun May 9, 1:05am

Sun May 9, 12:04am

Sat May 8, 11:05pm

Sat May 8, 10:04pm

Sat May 8, 9:05pm

Sat May 8, 8:04pm

Sat May 8, 7:04pm

Sat May 8, 6:04pm

Sat May 8, 5:05pm

Sat May 8, 4:04pm

Sat May 8, 3:05pm

Sat May 8, 2:05pm

Sat May 8, 1:05pm

Sat May 8, 12:04pm

Sat May 8, 11:05am

Sat May 8, 10:04am

Sat May 8, 9:04am

Sat May 8, 8:04am

Sat May 8, 7:04am

Sat May 8, 6:04am

Sat May 8, 5:04am

Sat May 8, 4:04am

Sat May 8, 3:04am

Sat May 8, 2:04am

Sat May 8, 1:05am

Sat May 8, 12:04am

Fri May 7, 11:04pm

Fri May 7, 10:05pm

Fri May 7, 9:04pm

Fri May 7, 8:04pm

Fri May 7, 7:05pm

Fri May 7, 6:04pm

Fri May 7, 5:05pm

Fri May 7, 4:04pm

Fri May 7, 3:04pm

Fri May 7, 2:05pm

Fri May 7, 1:04pm

Fri May 7, 12:04pm

Fri May 7, 11:05am

Fri May 7, 10:04am

Fri May 7, 9:04am

Fri May 7, 8:05am

Fri May 7, 7:04am

Fri May 7, 6:04am

Fri May 7, 5:04am

Fri May 7, 4:04am

Fri May 7, 3:04am

Fri May 7, 2:05am

Fri May 7, 1:04am

Fri May 7, 12:05am

Thu May 6, 11:04pm

Thu May 6, 10:04pm

Thu May 6, 9:05pm

Thu May 6, 8:04pm

Thu May 6, 7:04pm

Thu May 6, 6:04pm

Thu May 6, 5:05pm

Thu May 6, 4:04pm

Thu May 6, 3:04pm

Thu May 6, 2:05pm

Thu May 6, 1:04pm

Thu May 6, 11:04am

Thu May 6, 10:04am

Thu May 6, 9:04am

Thu May 6, 8:04am

Thu May 6, 7:04am

Thu May 6, 6:04am

Thu May 6, 5:04am

Thu May 6, 4:04am

Thu May 6, 3:04am

Thu May 6, 2:05am

Thu May 6, 1:04am

Thu May 6, 12:05am

Wed May 5, 11:04pm

Wed May 5, 10:04pm

Wed May 5, 9:05pm

Wed May 5, 8:04pm

Wed May 5, 7:05pm

Wed May 5, 6:04pm

Wed May 5, 5:04pm

Wed May 5, 4:04pm

Wed May 5, 3:04pm

Wed May 5, 2:05pm

Wed May 5, 1:05pm

Wed May 5, 12:04pm

Wed May 5, 11:05am

Wed May 5, 10:04am

Wed May 5, 9:04am

Wed May 5, 8:04am

Wed May 5, 7:04am

Wed May 5, 6:05am

Wed May 5, 5:04am

Meta data:

ID: 99cb04d7-4b79-4bf7-84c3-bb2eab08903a
Link: https://api.weather.gov/products/99cb04d7-4b79-4bf7-84c3-bb2eab08903a